Погода в Унцукуле

Россия / Республика Дагестан     42°42′42″N   46°47′32″E
темп.,
°C
ветер,
м/с
пор.,
м/с
влажн.,
%
обл.,
%
осадки,
мм/ч
давл.,
гПа
погр.,
м
25 июня, сб
сб2500:00+13зюз119168 0.3 101013
03:00+12з228598 0.3 101012
06:00+15ссз01741 0.0 101085
09:00+17всв327528 0.0 1010635
12:00+19св427594 0.1 1010735
15:00+18св327899 0.6 1009693
18:00+16св2286100 0.4 1010326
21:00+14вюв1294100 1.0 101155
26 июня, вс
вс2600:00+14ю1194100 0.1 101111
03:00+13юз2291100 2.3 101023
06:00+15всв118337 0.0 101090
09:00+17всв3282100 0.0 1009676
12:00+19св3372100 0.2 1008842
15:00+19св3371100 0.6 1008950
18:00+18ссв1274100 0.4 1009465
21:00+15зюз1184100 0.9 101112
27 июня, пн
пн2700:00+15зсз1186100 0.2 101111
03:00+13зюз22870 0.2 101118
06:00+15зсз22792 0.0 1012110
09:00+20ссв21620 0.0 1011748
12:00+22св436144 0.0 10111288
15:00+20ссв336988 0.2 1012932
18:00+18св228191 0.3 1012453
21:00+15зсз1192100 0.4 101411
28 июня, вт
вт2800:00+15сз1183100 0.0 101311
03:00+14сз117982 0.0 101211
06:00+16зсз12731 0.0 101194
09:00+20ссв22540 0.0 1010754
12:00+22св32528 0.0 10101241
15:00+21ссв335242 0.1 10101354
18:00+19св336557 0.1 1012341
21:00+13сз118764 0.7 101516
29 июня, ср
ср2900:00+14з0180100 0.1 101411
03:00+12ююз118120 0.1 101410
06:00+15зюз11736 0.0 101491
09:00+19всв225611 0.0 10141086
12:00+20св3254100 0.0 10131452
15:00+19св1157100 0.1 1013896
18:00+16всв228798 0.5 1014272
21:00+15в1298100 0.8 1015133